星链-1378 (STARLINK-1378 )

导读 | 星芒AI

STARLINK-1378 是 SpaceX Starlink 卫星互联网项目中的一颗低轨道卫星,属于第13批发射的星链卫星群。该卫星于2020年11月25日由猎鹰9号火箭成功送入近地轨道,旨在为全球用户提供高速互联网服务。它运行在约550公里高度的轨道上,配备先进通信设备,支持Ka/Ku波段数据传输。作为星链计划的重要组成部分,STARLINK-1378 有助于提升网络覆盖范围和连接稳定性,特别是在偏远和网络基础设施薄弱的地区。

基本信息
目录编号:
45548
目录名称:
STARLINK-1378
国际标识:
2020-025T
轨道中心:
EARTH
卫星名称:
星链-1378
卫星全名:
星链-1378 (STARLINK-1378 )
卫星状态:
已陨落 最后检测时间 2025-02-26
发射日期:
2020-04-22 UTC
国别 :
美国 (US)
星等 :
--
轨道信息
数据来源 国际轨道数据
星历时间: 2025-02-25T18:25:26+0800
轨道信息已过期293天
半长轴: 6550.841km
偏心率: 0.0007118
轨道倾角: 53.024°
近地点辐角 223.094°
升交点赤经 312.394°
平近点角 306.156°
近地点: 168.043km
远地点: 177.369km
周期: 87.944分钟
每日圈数: 16.374091
详细信息
固有亮度:
5
最大亮度:
2.5
卫星平台:
Starlink V1.0
覆盖范围:
全球
运营商:
太空探索技术公司
运营商所在国:
美国
制造商(研发单位):
太空探索技术公司
制造商所在国:
美国
使用方式:
暂无
卫星简介
星链(Starlink)计划是由太空探索技术公司(SpaceX)提出的一个巨型低轨卫星互联网星座项目,计划在2019年至2024年间在太空搭建由约1.2万颗卫星组成的“星链”网络,其中1584颗将部署在地球上空550千米处的近地轨道,并从2020年开始工作。该卫星仍在工作。